Zurück zum Katalog

STARLINK-6309

AktivKommunikationVLEO
NORAD 56535·PAYLOAD·🇺🇸 United States

Gestartet May 14, 2023 von Cape Canaveral Space Force Station

Loading…

Nächste Überflüge (nächste 24 Stunden)

TLE

AktuellSource: CelesTrak SupGP

Epoche: Sep 15, 2026, 03:11 UTC

1 56535C 23065AJ  26258.13312500 -.00021193  00000+0 -76777-3 0  2580
2 56535  42.9991 236.7699 0001347 263.1255 297.1627 15.27582105    12

Verfolge STARLINK-6309 in Echtzeit mit AllMySat

Download on the App Store